FENGYUN 1C DEB, 31419

Orbit data source: Space-Track

FENGYUN 1C DEB, 31419 is space debris in SSO originally from a launch on Mon, 10 May 1999 UTC launched from the Taiyaun Space Center, China (TSC). Fengyun 1C debris stems from the Chinese weather satellite Fengyun-1C, which was intentionally destroyed by a Chinese anti-satellite missile in 2007. This event dramatically increased the amount of space debris, with thousands of trackable fragments posing hazards to satellites and human spaceflight. The Fengyun 1C debris cloud has become a focal point in discussions about space sustainability and the need for international regulations to prevent the creation of new debris.

Loading next visibility...
Identifier
31419, 1999-025BTF
Orbit
SSO
Country
Flag of CNCN / PRC
Related business
Manufacturer
Unknown
Mission
Spacecraft
Bus & Motor
Unknown
Mass
Unknown
Launch date (UTC)
1999-05-10 (27 years ago)
Launch vehicle
Unknown
Launch site
Taiyaun Space Center, China (TSC)
Object type
Payload
Rocket body
Debris
Shape & HBR
Unknown shape, 0.1 m
Radar Cross Section
Small (<0.1 m²)

Expand to show TLE details & history
Last TLE update: 1 week ago

TLE from 1 week ago
0 FENGYUN 1C DEB
1 31419U 99025BTF 26248.34763238  .00004782  00000-0  69604-3 0  9990
2 31419  98.7846  88.6277 0038744  81.5509 279.0086 14.75908182689543
Epoch: 2026-09-05T08:20Z
TLE epoch observation values (Epoch: 2026-09-05T08:20:35.437Z)
Latitude
-0.0001°
Longitude
-20.97834°
Altitude
641.101 km
Speed
7.54 km/s
True Right ascension
05h 54m 30s
True Declination
0° 00' 00"
Sunlit
Object was in daylight at epoch
Visualization orbit readout
Latitude
Unknown
Longitude
Unknown
Altitude
Unknown
Speed
Unknown
Apparent Right ascension
Unknown
Apparent Declination
Unknown
Sunlit
N/A
Visualization observer readout
Local Sidereal Time
04:44:38
Azimuth
Unknown
Elevation
Unknown
Doppler factor
Unknown
Orbital elements
Apogee altitude
666.546 km
Perigee altitude
612.169 km
Semi-major axis
7,017.495 km
Eccentricity
0.00387
Inclination
98.7846°
RAAN
88.6277°
Arg. of periapsis
81.5509°
True anomaly
278.56977°
Mean anomaly
279.0086°
Eccentric anomaly
278.78922°
Mean motion
3.69207 °/min
Orbital period
97.51 mins
BSTAR
0.00069604
Loading maneuver chart data...
Computing Atmospheric mass density...

Documentation

Showing up to 5 results
|